Regional Weather Roundup
Issued by NWS

Home | Current Version | Previous Version | Graphics & Text | Print | Product List | Glossary On
Versions: 1 2 3 4 5 6 7 8 9 10 11 12 13 14 15 16 17 18 19 20 21 22 23 24 25 26 27 28 29 30 31 32 33 34 35 36 37 38 39 40 41 42 43 44 45 46 47 48 49 50
000
ASUS45 KCYS 260210
RWRWY

WYOMING REGIONAL WEATHER ROUNDUP
NATIONAL WEATHER SERVICE CHEYENNE WY
800 PM MDT TUE JUL 25 2017

NOTE:  "FAIR" INDICATES FEW OR NO CLOUDS BELOW 12,000 FEET
WITH NO SIGNIFICANT WEATHER AND/OR OBSTRUCTIONS TO VISIBILITY.

WYZ001-260300-
YELLOWSTONE NATIONAL PARK

CITY           SKY/WX    TMP DP  RH WIND       PRES   REMARKS
LK YELLOWSTONE   N/A     53  53 100 CALM      30.39F
W YELLOWSTONE  NOT AVBL

$$
WYZ002>013-054>058-071-098>099-260300-
NORTHERN WYOMING

CITY           SKY/WX    TMP DP  RH WIND       PRES   REMARKS
JACKSON        PTCLDY    63  55  77 N8        30.26F
CODY           MOCLDY    64  54  69 SE6       30.22F
GREYBULL       FAIR      69  51  52 W3        30.15F
WORLAND        CLOUDY    65  53  65 N5        30.17F
SHERIDAN       CLOUDY    63  59  87 S6        30.15F
BUFFALO        CLOUDY    64  59  83 CALM      30.22F
GILLETTE       LGT RAIN  65  59  81 CALM      30.18R
HULETT         RAIN      66  63  88 CALM      30.19R
NEWCASTLE      FAIR      77  54  44 N10       30.13R

$$
WYZ014>020-022>026-101>103-260300-
CENTRAL WYOMING

CITY           SKY/WX    TMP DP  RH WIND       PRES   REMARKS
BIG PINEY      CLOUDY    60  56  86 NW3       30.29S
PINEDALE       LGT RAIN  63  52  67 NW6       30.29S
DUBOIS         CLOUDY    63  43  48 SE12      30.31F
LANDER         CLOUDY    67  50  54 CALM      30.23R
RIVERTON       CLOUDY    67  54  63 N3        30.23S
CASPER         CLOUDY    64  56  75 NE6       30.23R
DOUGLAS        LGT RAIN  67  55  65 NW8       30.20R

$$
WYZ021-027>030-104>119-260300-
SOUTHERN WYOMING

CITY           SKY/WX    TMP DP  RH WIND       PRES   REMARKS
EVANSTON       CLOUDY    63  58  83 S5        30.27S
KEMMERER         N/A     68  46  45 N14G20    30.28R
FORT BRIDGER   MOCLDY    68  53  57 SW8       30.29R
ROCK SPRINGS   CLOUDY    68  53  58 NE13      30.26R
RAWLINS        LGT RAIN  61  56  83 E13       30.27S
SARATOGA       CLOUDY    63  59  88 SE5       30.29S
LARAMIE        LGT RAIN  58  56  93 N8        30.32S
CHEYENNE       CLOUDY    69  55  60 NW13      30.22F
TORRINGTON     FAIR      81  53  37 N18       30.05R
PINE BLUFFS    LGT RAIN  73  54  49 NW22G30   30.13R

$$



USA.gov is the U.S. government's official web portal to all federal, state and local government web resources and services.